Location: Navalespino
(40.5894°N, 4.2660°W)
Time: 03:06:41
(UTC+00:00)

Iridium 4 Rocket - Pass Details

Date: 18 April 2024
Orbit: 581 x 897 km, 86.9° (Epoch: 28 May)

Event Time Altitude Azimuth Distance (km) Brightness Sun altitude
Exits shadow 20:44:41 30° 151° (SSE) 1,448 4.4 -18.8°
Maximum altitude 20:47:14 56° 87° (E) 1,006 3.8 -19.2°
Drops below altitude 10° 20:52:54 10° 10° (N) 2,552 6.5 -20.1°
Sets 20:55:26 0° 7° (N) 3,512 7.3 -20.5°
